Location: Wanzleben
(52.0609°N, 11.4408°E)
Time: 17:39:59
(UTC+00:00)

Envisat - Visible Passes

Search period start: 25 November 2020 00:00
Search period end: 05 December 2020 00:00
Orbit: 764 x 766 km, 98.1° (Epoch: 25 November)

Date Brightness Start Highest point End Pass type
(mag) Time Alt. Az. Time Alt. Az. Time Alt. Az.
25 Nov 5.7 04:02:52 10° NE 04:06:32 20° E 04:10:10 10° SE visible
25 Nov 2.9 05:41:01 10° NNE 05:46:05 73° WNW 05:51:10 10° SSW visible
25 Nov 4.9 17:01:55 10° SSW 17:06:28 32° W 17:11:02 10° NNW visible
26 Nov 3.6 05:04:13 10° NNE 05:09:15 59° E 05:14:16 10° S visible
26 Nov 3.6 16:24:24 10° S 16:29:27 63° WSW 16:34:31 10° NNW visible
26 Nov 6.4 18:08:59 10° W 18:09:31 10° W 18:10:04 10° WNW visible
27 Nov 4.9 04:27:43 10° NNE 04:32:13 31° E 04:36:41 10° SSE visible
27 Nov 3.3 06:06:34 10° N 06:11:26 46° WNW 06:16:16 10° SW visible
27 Nov 3.0 15:47:35 10° SSE 15:52:37 69° ENE 15:57:41 10° N visible
27 Nov 5.6 17:28:23 10° SW 17:32:09 21° W 17:35:57 10° NW visible
28 Nov 5.9 03:51:52 10° NE 03:54:59 16° E 03:58:05 10° SE visible
28 Nov 3.0 05:29:36 10° NNE 05:34:43 87° WNW 05:39:49 10° SSW visible
28 Nov 4.5 16:50:15 10° SSW 16:54:59 39° W 16:59:47 10° NNW visible
29 Nov 4.0 04:52:52 10° NNE 04:57:49 48° E 05:02:44 10° S visible
29 Nov 3.2 16:12:57 10° S 16:18:02 77° WSW 16:23:09 10° NNW visible
29 Nov 6.2 17:55:42 10° WSW 17:57:57 13° W 18:00:12 10° WNW visible
30 Nov 5.2 04:16:31 10° NE 04:20:44 25° E 04:24:54 10° SSE visible
30 Nov 3.1 05:55:06 10° N 06:00:05 56° WNW 06:05:03 10° SW visible
30 Nov 5.3 17:16:29 10° SSW 17:20:38 25° W 17:24:50 10° NW visible
01 Dec 6.1 03:41:06 10° ENE 03:43:25 13° E 03:45:44 10° ESE visible
01 Dec 3.2 05:18:12 10° NNE 05:23:20 78° ESE 05:28:25 10° S visible
01 Dec 4.1 16:38:38 10° S 16:43:32 48° W 16:48:28 10° NNW visible
02 Dec 4.4 04:41:34 10° NNE 04:46:22 40° E 04:51:08 10° SSE visible
02 Dec 3.5 06:20:44 10° N 06:25:22 36° WNW 06:29:59 10° SW visible
02 Dec 3.0 16:01:33 10° SSE 16:06:38 88° ENE 16:11:46 10° NNW visible
02 Dec 6.0 17:43:20 10° WSW 17:46:23 16° W 17:49:26 10° NW visible
03 Dec 5.5 04:05:23 10° NE 04:09:13 21° E 04:13:01 10° SE visible
03 Dec 3.0 05:43:40 10° N 05:48:44 68° WNW 05:53:46 10° SSW visible
03 Dec 5.0 17:04:41 10° SSW 17:09:08 30° W 17:13:37 10° NNW visible
04 Dec 6.3 03:31:03 10° ENE 03:31:51 10° E 03:32:38 10° E visible
04 Dec 3.5 05:06:50 10° NNE 05:11:55 64° ESE 05:16:57 10° S visible
04 Dec 3.7 16:27:06 10° S 16:32:06 59° W 16:37:09 10° NNW visible
